#timestamp,LO_Frequency,Hit,StdDev 
1584856815.3,286047003.7,N
1584856835.1,286047001.9,N
1584856855.9,286047002.4,N
1584856875.7,286047001.8,N
1584856895.6,286047002.8,N
1584856915.4,286047000.5,N
1584856935.2,286047001.2,N
1584856955.1,286047002.4,N
1584856956.0,286047002.4,N
1584856975.8,286047000.3,N
1584857025.7,286047000.2,E
1584857035.6,286047001.9,N
1584857055.4,286047002.6,P
1584857075.3,286047004.3,P
1584857095.1,286047002.1,N
1584857115.9,286047004.2,Y
1584857135.7,286047000.0,P
1584857155.5,286047000.8,N
1584857175.4,286046999.3,N
1584857195.2,286046996.8,N
1584857215.0,286047000.9,N
1584857215.9,286047000.9,N
1584857235.8,286047000.8,N
1584857255.6,286046999.9,N
1584857275.5,286047001.9,N
1584857295.3,286047002.1,N
1584857315.1,286047004.0,N
1584857335.9,286047004.1,N
1584857355.7,286047004.0,N
1584857375.6,286047003.7,N
1584857395.4,286047004.0,N
1584857415.2,286047003.5,N
1584857435.1,286047003.7,N
1584857436.0,286047003.7,N
1584857455.8,286047004.4,N
1584857475.7,286047003.7,N
1584857495.5,286047002.1,N
1584857515.3,286047001.7,N
1584857535.2,286047002.1,N
1584857555.0,286047001.5,N
1584857555.9,286047001.5,N
1584857575.7,286047003.6,N
1584857595.6,286047003.7,N
1584857615.4,286047001.5,N
1584857635.3,286047003.8,N
1584857655.1,286047006.0,Y
1584857675.8,286047004.2,P
1584857695.7,286047006.0,P
1584857715.5,286047001.5,N
1584857735.4,286047002.4,N
1584857755.2,286046998.4,N
1584857775.0,286047000.5,N
1584857775.9,286047000.5,N
1584857795.8,286047002.0,N
1584857815.6,286046998.2,N
1584857835.4,286047001.2,N
1584857855.3,286046999.3,N
1584857875.1,286047000.2,N
1584857895.9,286047001.9,N
1584857915.7,286047001.5,N
1584857935.5,286047002.1,N
1584857955.4,286046999.9,N
1584857975.2,286047000.5,N
1584857995.1,286047000.4,N
1584857996.0,286047000.4,N
1584858015.8,286047000.5,N
1584858035.6,286046999.8,N
1584858055.5,286047002.7,N
1584858075.3,286047000.1,N
1584858095.2,286047001.4,N
1584858115.9,286047003.3,N
1584858135.7,286047004.1,N
1584858155.6,286047006.0,Y
1584858175.4,286047001.8,P
1584858195.2,286047004.0,P
1584858215.1,286047003.6,P
1584858216.0,286047003.6,Y
1584858235.8,286047002.7,P
1584858255.7,286046998.5,P
1584858275.5,286047000.5,N
1584858295.3,286047000.2,N
1584858315.2,286046999.4,N
1584858335.0,286046996.7,N
1584858335.9,286046996.7,N
1584858355.8,286046996.0,N
1584858375.6,286046998.0,N
1584858395.4,286046998.9,N
1584858415.3,286046997.9,N
1584858435.1,286046995.2,N
1584858455.9,286046995.3,N
1584858475.7,286046997.8,N
1584858495.5,286046997.2,N
1584858515.4,286046999.0,N
1584858535.2,286046998.9,N
1584858555.1,286046997.0,N
1584858556.0,286046997.0,N
1584858575.8,286046999.1,N
1584858595.6,286046997.9,N
1584858615.5,286046995.7,N
1584858635.3,286046998.0,N
1584858655.1,286046995.4,N
1584858675.9,286046999.2,N
1584858695.7,286046998.5,N
1584858715.6,286046995.5,N
1584858735.4,286046994.6,N
1584858755.2,286046996.4,N
1584858775.1,286046995.6,N
1584858776.0,286046995.6,N
1584858795.8,286046999.0,N
1584858815.7,286046996.6,N
1584858835.5,286046996.8,N
1584858855.3,286046996.9,N
1584858875.2,286046997.7,N
1584858895.0,286046999.6,N
1584858895.9,286046999.6,N
1584858915.8,286046997.5,N
1584858935.6,286046997.4,N
1584858955.4,286046996.1,N
1584858975.3,286046996.1,N
1584858995.1,286046993.6,Y
1584859015.9,286046995.3,P
1584859035.7,286046997.2,N
1584859055.5,286046996.8,P
1584859075.4,286046999.4,N
1584859095.2,286046998.7,N
1584859115.0,286047001.1,N
1584859115.9,286047001.1,N
1584859135.8,286047000.6,N
1584859155.6,286046999.8,N
1584859175.5,286046999.8,N
1584859195.3,286047002.8,N
1584859215.1,286047000.4,N
1584859235.9,286047002.4,N
1584859255.7,286047002.4,N
1584859275.6,286047000.4,N
1584859295.4,286047000.3,N
1584859315.2,286047001.7,N
1584859335.1,286047001.3,N
1584859336.0,286047001.3,N
1584859355.8,286047001.4,N
1584859375.7,286047002.2,N
1584859395.5,286047002.5,N
1584859415.3,286047001.8,N
1584859435.2,286047001.6,N
1584859455.0,286047002.6,N
1584859455.9,286047002.6,N
1584859475.7,286047001.5,N
1584859495.6,286047002.2,N
1584859515.4,286047002.5,N
1584859535.3,286047002.7,N
1584859555.1,286047002.5,N
1584859575.8,286047000.0,N
1584859595.7,286046998.2,N
1584859615.5,286046998.9,N
1584859665.4,286046999.3,E
1584859675.3,286047001.1,N
1584859695.1,286047000.3,P
1584859715.9,286047001.4,P
1584859735.7,286047006.0,Y
1584859755.5,286047003.8,P
1584859775.4,286047000.5,N
1584859795.2,286047002.8,N
1584859815.0,286047001.2,N
1584859816.0,286047001.2,N
1584859835.8,286046998.6,N
1584859855.6,286047001.0,N
1584859875.5,286047000.4,N
1584859895.3,286047000.6,N
1584859915.1,286047000.4,N
1584859935.9,286046999.0,N
1584859955.7,286046998.9,N
1584859975.6,286046998.9,N
1584859995.4,286047001.0,N
1584860015.2,286047000.9,N
1584860035.1,286047000.1,N
1584860036.0,286047000.1,N
1584860055.8,286047002.6,N
1584860075.6,286047001.4,N
1584860095.5,286046999.9,N
1584860115.3,286047001.6,N
1584860135.2,286046998.7,N
1584860155.9,286046999.4,N
1584860175.7,286046998.9,N
1584860195.6,286047001.2,N
1584860215.4,286047002.8,N
1584860235.2,286047002.5,N
1584860255.1,286046999.2,N
1584860256.0,286046999.2,N
1584860275.8,286046998.2,N
1584860295.7,286046995.1,Y
1584860315.5,286046997.7,P
1584860335.3,286046996.8,N
1584860355.2,286046999.5,N
1584860375.0,286046999.4,N
1584860375.9,286046999.4,N
1584860395.8,286046998.1,N
